User: anonymous   Login
Location: 相模原市立博物館
(35.5593°N, 139.3931°E)
Time: 05:59:16
(UTC+09:00)
Language:

CAS-4A - Orbit

View from above orbital plane
View from above orbital plane
View from above satellite
View from above satellite

Ground track
Ground track

The orbit data is extracted from the following two-line orbital elements,

1 42761U 17034D   22022.50299961  .00002486  00000-0  15993-3 0  9994
2 42761  43.0186  55.3103 0006975  92.1354  57.1862 15.10849975254270
Epoch (UTC): 22 January 2022 12:04:19
Eccentricity: 0.0006975
inclination: 43.0186°
perigee height: 529 km
apogee height: 538 km
right ascension of ascending node: 55.3103°
argument of perigee: 92.1354°
revolutions per day: 15.10849975
mean anomaly at epoch: 57.1862°
orbit number at epoch: 25427

The dashed part of the orbit path shows where the satellite is in the earth's shadow,  

DLR